Change the Weather History Date:

Saturday, August 23, 2014

  Actual Average (KVPZ) Record (KVPZ)
Temperature  
Mean Temperature 76 °F 70 °F  
Max Temperature 86 °F 80 °F 90 °F (1998)
Min Temperature 66 °F 60 °F 52 °F (2009)
Degree Days  
Heating Degree Days 0 0  
Month to date heating degree days 0  
Since 1 June heating degree days 45  
Since 1 July heating degree days 4  
Cooling Degree Days 10 5  
Month to date cooling degree days 147  
Year to date cooling degree days 598  
Since 1 June cooling degree days 551  
Growing Degree Days 26 (Base 50)    
Moisture  
Dew Point 69 °F    
Average Humidity 86    
Maximum Humidity 94    
Minimum Humidity 62    
Precipitation  
Precipitation 0.00 in 0.15 in 1.36 in (2007)
Month to date precipitation 3.21  
Year to date precipitation 24.44  
Sea Level Pressure  
Sea Level Pressure 29.98 in    
Wind  
Wind Speed 2 mph (East)    
Max Wind Speed 28 mph    
Max Gust Speed 41 mph    
Visibility 7 miles    
Events      
T = Trace of Precipitation, MM = Missing Value Source: NWS Daily Summary

Daily Weather History Graph

Daily Weather History Graph

Search for Another Location

Airport or City:

Trip Planner

Search our weather history database for the weather conditions in past years. The results will help you decide how hot, cold, wet, or windy it might be!

Date:

Astronomy

Aug. 23, 2014 Rise Set
Actual Time 6:03 AM CDT 7:33 PM CDT
Civil Twilight 5:34 AM CDT 8:02 PM CDT
Nautical Twilight 4:59 AM CDT 8:37 PM CDT
Astronomical Twilight 4:22 AM CDT 9:14 PM CDT
Moon 4:19 AM CDT (8/23) 6:18 PM CDT (8/23)
Length of Visible Light 14h 27m
Length of Day
13h 29m
Waning Crescent, 3% of the Moon is Illuminated
Aug 23
Waning Crescent
Aug 25
New
Sep 2
First Quarter
Sep 8
Full
Sep 15
Last Quarter

Hourly Weather History & Observations

Time (CDT) Temp. Heat Index Dew Point Humidity Pressure Visibility Wind Dir Wind Speed Gust Speed Precip Events Conditions
12:15 AM 70.0 °F - 67.8 °F 93% 29.98 in 7.0 mi Calm Calm - N/A   Clear
12:35 AM 69.8 °F - 67.6 °F 93% 29.98 in 5.0 mi Calm Calm - N/A   Clear
12:55 AM 69.3 °F - 67.3 °F 93% 29.98 in 4.0 mi Calm Calm - N/A   Clear
1:15 AM 69.6 °F - 67.6 °F 93% 29.98 in 4.0 mi Calm Calm - N/A   Clear
1:35 AM 68.5 °F - 66.4 °F 93% 29.97 in 1.5 mi Calm Calm - N/A   Unknown
1:55 AM 68.0 °F - 66.0 °F 93% 29.97 in 0.2 mi Calm Calm - N/A   Unknown
2:15 AM 67.8 °F - 65.8 °F 93% 29.97 in 0.2 mi Calm Calm - N/A   Unknown
2:35 AM 67.6 °F - 65.7 °F 93% 29.97 in 0.2 mi Calm Calm - N/A   Unknown
2:55 AM 68.0 °F - 66.0 °F 93% 29.97 in 0.2 mi Calm Calm - N/A   Mostly Cloudy
3:15 AM 67.3 °F - 65.5 °F 94% 29.97 in 0.2 mi Calm Calm - N/A   Unknown
3:35 AM 66.9 °F - 65.1 °F 94% 29.98 in 0.2 mi Calm Calm - N/A   Unknown
4:15 AM 66.6 °F - 64.8 °F 94% 29.98 in 0.2 mi Calm Calm - N/A   Unknown
4:35 AM 66.6 °F - 64.8 °F 94% 29.98 in 0.2 mi Calm Calm - N/A   Unknown
4:55 AM 66.9 °F - 65.1 °F 94% 29.98 in 0.2 mi Calm Calm - N/A   Unknown
5:15 AM 66.7 °F - 64.9 °F 94% 29.98 in 0.2 mi Calm Calm - N/A   Overcast
5:35 AM 67.1 °F - 65.3 °F 94% 29.98 in 0.2 mi Calm Calm - N/A   Overcast
6:15 AM 66.2 °F - 64.4 °F 94% 29.98 in 0.5 mi Calm Calm - N/A   Unknown
6:35 AM 66.9 °F - 65.1 °F 94% 29.98 in 0.5 mi Calm Calm - N/A   Mostly Cloudy
7:15 AM 69.3 °F - 67.5 °F 94% 29.98 in 4.0 mi Calm Calm - N/A   Clear
7:35 AM 70.9 °F - 69.1 °F 94% 29.98 in 5.0 mi Calm Calm - N/A   Clear
7:55 AM 72.3 °F - 70.5 °F 94% 29.99 in 7.0 mi Calm Calm - N/A   Clear
8:15 AM 73.8 °F - 71.8 °F 93% 29.99 in 10.0 mi Calm Calm - N/A   Clear
8:35 AM 75.0 °F - 72.9 °F 93% 29.99 in 10.0 mi Calm Calm - N/A   Clear
8:55 AM 75.9 °F - 73.4 °F 92% 30.00 in 10.0 mi Calm Calm - N/A   Clear
9:15 AM 77.0 °F - 73.8 °F 90% 29.99 in 10.0 mi Calm Calm - N/A   Clear
9:35 AM 78.4 °F - 73.9 °F 86% 30.00 in 10.0 mi Calm Calm - N/A   Clear
9:55 AM 80.1 °F 84.2 °F 73.0 °F 79% 30.00 in 10.0 mi Calm Calm - N/A   Clear
10:15 AM 80.4 °F 84.8 °F 72.9 °F 78% 30.00 in 10.0 mi East 3.5 mph - N/A   Scattered Clouds
10:35 AM 82.2 °F 87.3 °F 72.3 °F 72% 30.00 in 10.0 mi Calm Calm - N/A   Clear
10:55 AM 82.8 °F 87.9 °F 72.1 °F 70% 30.00 in 10.0 mi ESE 3.5 mph - N/A   Clear
11:15 AM 83.8 °F 89.2 °F 71.8 °F 67% 30.01 in 10.0 mi Calm Calm - N/A   Clear
11:35 AM 83.7 °F 88.6 °F 71.1 °F 66% 30.00 in 10.0 mi Calm Calm - N/A   Scattered Clouds
11:55 AM 84.2 °F 89.3 °F 71.2 °F 65% 30.01 in 10.0 mi Calm Calm - N/A   Scattered Clouds
12:15 PM 84.6 °F 90.0 °F 71.6 °F 65% 30.00 in 10.0 mi Calm Calm - N/A   Clear
12:35 PM 84.0 °F 89.0 °F 71.1 °F 65% 30.00 in 10.0 mi Calm Calm - N/A   Scattered Clouds
12:55 PM 83.8 °F 88.3 °F 70.3 °F 64% 29.99 in 10.0 mi Calm Calm - N/A   Clear
1:15 PM 85.1 °F 90.1 °F 70.7 °F 62% 29.99 in 10.0 mi Calm Calm - N/A   Clear
1:35 PM 84.4 °F 91.0 °F 73.0 °F 69% 29.99 in 10.0 mi NE 6.9 mph - N/A   Mostly Cloudy
1:55 PM 83.5 °F 90.0 °F 73.4 °F 72% 29.99 in 10.0 mi ENE 6.9 mph - N/A   Mostly Cloudy
2:15 PM 83.3 °F 89.3 °F 72.9 °F 71% 29.99 in 10.0 mi East 9.2 mph - N/A   Mostly Cloudy
2:35 PM 83.7 °F 89.4 °F 72.5 °F 69% 29.98 in 10.0 mi East 8.1 mph - N/A   Mostly Cloudy
2:55 PM 83.8 °F 90.1 °F 73.2 °F 70% 29.98 in 10.0 mi East 5.8 mph - N/A   Mostly Cloudy
3:15 PM 83.8 °F 90.4 °F 73.6 °F 71% 29.99 in 10.0 mi ENE 6.9 mph - N/A   Scattered Clouds
3:35 PM 83.3 °F 89.6 °F 73.4 °F 72% 29.98 in 10.0 mi East 6.9 mph - N/A   Clear
3:55 PM 82.0 °F 87.2 °F 72.7 °F 73% 29.98 in 10.0 mi NE 5.8 mph - N/A   Scattered Clouds
4:15 PM 80.4 °F 84.8 °F 73.0 °F 78% 30.01 in 7.0 mi NW 13.8 mph 19.6 mph N/A   Mostly Cloudy
4:35 PM 73.4 °F - 69.1 °F 86% 30.01 in 0.2 mi NNW 27.6 mph 41.4 mph N/A   Overcast
4:55 PM 69.1 °F - 66.2 °F 91% 30.01 in 0.8 mi East 8.1 mph - N/A   Overcast
5:15 PM 69.4 °F - 66.2 °F 89% 30.00 in 10.0 mi East 8.1 mph - N/A   Overcast
5:35 PM 69.3 °F - 66.4 °F 91% 29.97 in 7.0 mi ESE 6.9 mph - N/A   Overcast
5:55 PM 68.9 °F - 66.6 °F 92% 29.93 in 7.0 mi ESE 8.1 mph - N/A   Overcast
6:15 PM 69.1 °F - 66.9 °F 93% 29.91 in 10.0 mi SE 10.4 mph - N/A   Overcast
6:35 PM 69.3 °F - 67.3 °F 93% 29.91 in 10.0 mi SE 8.1 mph - N/A   Overcast
6:55 PM 69.3 °F - 67.3 °F 93% 29.92 in 10.0 mi South 4.6 mph - N/A   Mostly Cloudy
7:15 PM 69.3 °F - 67.1 °F 93% 29.91 in 10.0 mi Calm Calm - N/A   Clear
7:35 PM 69.3 °F - 67.3 °F 93% 29.91 in 10.0 mi ESE 4.6 mph - N/A   Clear
7:55 PM 69.3 °F - 67.1 °F 93% 29.92 in 10.0 mi Calm Calm - N/A   Clear
8:15 PM 68.9 °F - 66.6 °F 92% 29.94 in 10.0 mi Calm Calm - N/A   Clear
8:35 PM 68.4 °F - 66.2 °F 93% 29.95 in 10.0 mi Calm Calm - N/A   Clear
8:55 PM 68.2 °F - 65.8 °F 92% 29.96 in 10.0 mi Calm Calm - N/A   Clear
9:15 PM 67.6 °F - 65.5 °F 93% 29.98 in 5.0 mi Calm Calm - N/A   Clear
9:35 PM 67.3 °F - 65.5 °F 94% 29.98 in 7.0 mi Calm Calm - N/A   Clear
9:55 PM 67.6 °F - 65.7 °F 93% 29.99 in 10.0 mi NW 3.5 mph - N/A   Clear
10:15 PM 68.0 °F - 65.8 °F 93% 30.00 in 10.0 mi West 3.5 mph - N/A   Clear
10:35 PM 68.0 °F - 66.0 °F 93% 30.01 in 10.0 mi West 3.5 mph - N/A   Clear
10:55 PM 67.6 °F - 65.7 °F 93% 30.01 in 7.0 mi Calm Calm - N/A   Clear
11:35 PM 66.7 °F - 64.8 °F 93% 30.01 in 4.0 mi Calm Calm - N/A   Scattered Clouds
11:55 PM 66.6 °F - 64.6 °F 93% 30.01 in 5.0 mi Calm Calm - N/A   Scattered Clouds